Regional Weather Roundup
Issued by NWS

Home | Current Version | Previous Version | Graphics & Text | Print | Product List | Glossary Off
Versions: 1 2 3 4 5 6 7 8 9 10 11 12 13 14 15 16 17 18 19 20 21 22 23 24 25 26 27 28 29 30 31 32 33 34 35 36 37 38 39 40 41 42 43 44 45 46 47 48 49 50

000
ASUS43 KTOP 191259
RWRKS

WEATHER ROUNDUP FOR KANSAS
NATIONAL WEATHER SERVICE GOODLAND KS
800 AM CDT TUE SEP 19 2017

NOTE:  "FAIR" INDICATES FEW OR NO CLOUDS BELOW 12,000 FEET WITH NO
SIGNIFICANT WEATHER AND/OR OBSTRUCTIONS TO VISIBILITY.

KSZ001>006-013>018-027>032-041>047-191400-
NORTHWEST KANSAS

CITY           SKY/WX    TMP DP  RH WIND       PRES   REMARKS
GOODLAND       CLEAR     60  59  96 S12       29.71F FOG
HAYS           CLEAR     69  63  81 S14       29.74S
HILL CITY      CLEAR     67  64  90 CALM      29.73S
RUSSELL        CLEAR     68  63  84 S18       29.74S
$$

KSZ061>065-074>080-084>089-191400-
SOUTHWEST KANSAS

CITY           SKY/WX    TMP DP  RH WIND       PRES   REMARKS
DODGE CITY     CLEAR     65  62  90 SE12      29.77S
ELKHART          N/A     62  58  87 S12         N/A
GARDEN CITY    CLEAR     62  60  93 SE9       29.76S
GREAT BEND     CLEAR     69  63  81 S16G22    29.77S
LIBERAL        CLEAR     63  61  93 S13       29.79S
$$

KSZ066>073-081>083-090>101-191400-
SOUTHEAST KANSAS

CITY           SKY/WX    TMP DP  RH WIND       PRES   REMARKS
CHANUTE        CLEAR     68  64  87 SE8       29.89S
COFFEYVILLE    CLOUDY    69  66  90 S8        29.89S
HUTCHINSON     CLEAR     69  66  90 SE9       29.80F
MEDICINE LODGE   N/A     70  64  81 SE10G18   29.80F
NEWTON         CLEAR     67  65  93 SE8       29.84F
WICHITA INTL   PTCLDY    69  66  90 SE9       29.82F
WICHITA JABRA  CLEAR     69  67  93 S10       29.83F
WINFIELD       MOCLDY    71  66  84 SE8       29.85F
$$

KSZ007>012-019>026-033>040-048>060-102>105-191400-
NORTHEAST KANSAS

CITY           SKY/WX    TMP DP  RH WIND       PRES   REMARKS
CONCORDIA      CLEAR     67  66  97 SE8       29.78S
EMPORIA        MOCLDY    68  64  87 S12       29.86S
LAWRENCE       CLEAR     67  67 100 E6        29.87F
MANHATTAN      CLEAR     71  66  84 S6        29.82S
OLATHE IND     PTCLDY    66  65  96 SE8       29.90S
OLATHE EXE     MOSUNNY   66  66 100 S7        29.90S
SALINA         CLEAR     74  65  73 S16G23    29.79S
TOPEKA BILLARD PTCLDY    67  67 100 E5        29.86S
TOPEKA FORBES  PTCLDY    67  66  97 SE5       29.87S
$$




USA.gov is the U.S. government's official web portal to all federal, state and local government web resources and services.